02-09-2023, 00:00:05,      0,    0.0,   13.7,   0.00,   0.00, 1013.3,    0.2, -999.0
02-09-2023, 00:00:15,      0,    0.0,   13.8,   0.00,   0.00, 1013.3,    0.6, -999.0
02-09-2023, 00:00:25,      0,    0.0,   13.7,   0.00,   0.00, 1013.3,    0.3, -999.0
02-09-2023, 00:00:35,      0,    0.0,   13.7,   0.00,   0.00, 1013.3,    0.4, -999.0
02-09-2023, 00:00:45,     15,    0.0,   13.7,   0.00,   0.00, 1013.3,    0.3, -999.0
02-09-2023, 00:00:55,      0,    0.0,   13.7,   0.00,   0.00, 1013.3,    0.3, -999.0
02-09-2023, 00:01:05,      0,    0.0,   13.7,   0.00,   0.00, 1013.3,    0.2, -999.0
02-09-2023, 00:01:15,      0,    0.0,   13.8,   0.00,   0.00, 1013.3,    0.3, -999.0
02-09-2023, 00:01:25,      7,    0.0,   13.7,   0.00,   0.00, 1013.3,    0.2, -999.0
02-09-2023, 00:01:35,     12,    0.0,   13.7,   0.00,   0.00, 1013.3,    0.3, -999.0
02-09-2023, 00:01:45,      0,    0.0,   13.7,   0.00,   0.00, 1013.3,    0.2, -999.0
02-09-2023, 00:01:55,     12,    0.0,   13.8,   0.00,   0.00, 1013.3,    0.0, -999.0
02-09-2023, 00:02:05,      0,    0.0,   13.7,   0.00,   0.00, 1013.3,    0.5, -999.0
02-09-2023, 00:02:15,      0,    0.0,   13.8,   0.00,   0.00, 1013.3,    0.1, -999.0
02-09-2023, 00:02:25,      0,    0.0,   13.8,   0.00,   0.00, 1013.3,    0.3, -999.0
02-09-2023, 00:02:35,      0,    0.0,   13.8,   0.00,   0.00, 1013.4,    0.2, -999.0
02-09-2023, 00:02:45,      0,    0.0,   13.7,   0.00,   0.00, 1013.3,    0.4, -999.0
02-09-2023, 00:02:55,      0,    0.0,   13.7,   0.00,   0.00, 1013.3,    0.1, -999.0
02-09-2023, 00:03:04,      0,    0.0,   13.7,   0.00,   0.00, 1013.3,    0.3, -999.0
02-09-2023, 00:03:15,     15,    0.0,   13.7,   0.00,   0.00, 1013.3,    0.2, -999.0
02-09-2023, 00:03:25,      0,    0.0,   13.7,   0.00,   0.00, 1013.3,    0.1, -999.0
02-09-2023, 00:03:35,      0,    0.0,   13.7,   0.00,   0.00, 1013.3,    0.4, -999.0
02-09-2023, 00:03:44,      0,    0.0,   13.7,   0.00,   0.00, 1013.3,    0.1, -999.0
02-09-2023, 00:03:55,      0,    0.0,   13.7,   0.00,   0.00, 1013.3,    0.3, -999.0
02-09-2023, 00:04:05,      0,    0.0,   13.8,   0.00,   0.00, 1013.3,    0.2, -999.0
02-09-2023, 00:04:14,      0,    0.0,   13.7,   0.00,   0.00, 1013.3,    0.4, -999.0
02-09-2023, 00:04:25,      2,    0.0,   13.8,   0.00,   0.00, 1013.3,    0.2, -999.0
02-09-2023, 00:04:35,      0,    0.0,   13.7,   0.00,   0.00, 1013.3,    0.2, -999.0
02-09-2023, 00:04:44,      0,    0.0,   13.8,   0.00,   0.00, 1013.3,    0.2, -999.0
02-09-2023, 00:04:54,      0,    0.0,   13.8,   0.00,   0.00, 1013.3,    0.3, -999.0
02-09-2023, 00:05:05,      0,    0.0,   13.8,   0.00,   0.00, 1013.3,    0.2, -999.0
02-09-2023, 00:05:14,      0,    0.0,   13.8,   0.00,   0.00, 1013.3,    0.0, -999.0
02-09-2023, 00:05:24,      0,    0.0,   13.7,   0.00,   0.00, 1013.3,    0.4, -999.0
02-09-2023, 00:05:34,      0,    0.0,   13.8,   0.00,   0.00, 1013.3,    0.0, -999.0
02-09-2023, 00:05:45,      2,    0.0,   13.8,   0.00,   0.00, 1013.3,    0.0, -999.0
02-09-2023, 00:05:54,      0,    0.0,   13.8,   0.00,   0.00, 1013.3,    0.4, -999.0
02-09-2023, 00:06:04,      2,    0.0,   13.8,   0.00,   0.00, 1013.3,    0.5, -999.0
02-09-2023, 00:06:14,      0,    0.0,   13.8,   0.00,   0.00, 1013.3,    0.3, -999.0
02-09-2023, 00:06:24,      0,    0.0,   13.8,   0.00,   0.00, 1013.3,    0.6, -999.0
02-09-2023, 00:06:34,      0,    0.0,   13.7,   0.00,   0.00, 1013.3,    0.1, -999.0
02-09-2023, 00:06:44,      0,    0.0,   13.8,   0.00,   0.00, 1013.3,    0.3, -999.0
02-09-2023, 00:06:54,      0,    0.0,   13.8,   0.00,   0.00, 1013.3,    0.2, -999.0
02-09-2023, 00:07:04,      7,    0.0,   13.8,   0.00,   0.00, 1013.3,    0.2, -999.0
02-09-2023, 00:07:14,      2,    0.0,   13.7,   0.00,   0.00, 1013.3,    0.3, -999.0
02-09-2023, 00:07:24,      0,    0.0,   13.7,   0.00,   0.00, 1013.3,    0.3, -999.0
02-09-2023, 00:07:34,      0,    0.0,   13.8,   0.00,   0.00, 1013.3,    0.2, -999.0
02-09-2023, 00:07:44,      0,    0.0,   13.8,   0.00,   0.00, 1013.3,    0.3, -999.0
02-09-2023, 00:07:54,      0,    0.0,   13.8,   0.00,   0.00, 1013.3,    0.2, -999.0
02-09-2023, 00:08:04,     13,    0.0,   13.7,   0.00,   0.00, 1013.3,    0.2, -999.0
02-09-2023, 00:08:14,     15,    0.0,   13.7,   0.00,   0.00, 1013.3,    0.2, -999.0
02-09-2023, 00:08:24,      8,    0.0,   13.7,   0.00,   0.00, 1013.3,    0.3, -999.0
02-09-2023, 00:08:34,      2,    0.0,   13.7,   0.00,   0.00, 1013.3,    0.2, -999.0
02-09-2023, 00:08:44,      8,    0.0,   13.7,   0.00,   0.00, 1013.3,    0.3, -999.0
02-09-2023, 00:08:54,      0,    0.0,   13.7,   0.00,   0.00, 1013.3,    0.2, -999.0
02-09-2023, 00:09:04,     15,    0.0,   13.7,   0.00,   0.00, 1013.3,    0.4, -999.0
02-09-2023, 00:09:14,      0,    0.0,   13.7,   0.00,   0.00, 1013.3,    0.2, -999.0
02-09-2023, 00:09:24,      0,    0.0,   13.7,   0.00,   0.00, 1013.3,    0.2, -999.0
02-09-2023, 00:09:34,      0,    0.0,   13.7,   0.00,   0.00, 1013.3,    0.3, -999.0
02-09-2023, 00:09:44,      0,    0.0,   13.7,   0.00,   0.00, 1013.3,    0.4, -999.0
02-09-2023, 00:09:54,      0,    0.0,   13.7,   0.00,   0.00, 1013.3,    0.3, -999.0
02-09-2023, 00:10:03,     11,    0.0,   13.7,   0.00,   0.00, 1013.3,    0.1, -999.0
02-09-2023, 00:10:14,      0,    0.0,   13.7,   0.00,   0.00, 1013.3,    0.1, -999.0
02-09-2023, 00:10:24,      2,    0.0,   13.7,   0.00,   0.00, 1013.3,    0.2, -999.0
02-09-2023, 00:10:33,      0,    0.0,   13.7,   0.00,   0.00, 1013.3,    0.4, -999.0
02-09-2023, 00:10:43,      0,    0.0,   13.7,   0.00,   0.00, 1013.3,    0.4, -999.0
02-09-2023, 00:10:54,      0,    0.0,   13.7,   0.00,   0.00, 1013.3,    0.0, -999.0
02-09-2023, 00:11:04,      0,    0.0,   13.7,   0.00,   0.00, 1013.3,    0.0, -999.0
02-09-2023, 00:11:13,      0,    0.0,   13.7,   0.00,   0.00, 1013.3,    0.5, -999.0
02-09-2023, 00:11:23,     13,    0.0,   13.6,   0.00,   0.00, 1013.3,    0.1, -999.0
02-09-2023, 00:11:34,      0,    0.0,   13.6,   0.00,   0.00, 1013.3,    0.1, -999.0
02-09-2023, 00:11:43,     15,    0.0,   13.7,   0.00,   0.00, 1013.3,    0.3, -999.0
02-09-2023, 00:11:53,     12,    0.0,   13.7,   0.00,   0.00, 1013.3,    0.5, -999.0
02-09-2023, 00:12:03,      0,    0.0,   13.6,   0.00,   0.00, 1013.3,    0.0, -999.0
02-09-2023, 00:12:14,      0,    0.0,   13.6,   0.00,   0.00, 1013.3,    0.4, -999.0
02-09-2023, 00:12:23,      0,    0.0,   13.6,   0.00,   0.00, 1013.3,    0.5, -999.0
02-09-2023, 00:12:33,      0,    0.0,   13.6,   0.00,   0.00, 1013.3,    0.0, -999.0
02-09-2023, 00:12:43,     13,    0.0,   13.6,   0.00,   0.00, 1013.3,    0.2, -999.0
02-09-2023, 00:12:53,      0,    0.0,   13.6,   0.00,   0.00, 1013.3,    0.4, -999.0
02-09-2023, 00:13:03,      4,    0.0,   13.6,   0.00,   0.00, 1013.3,    0.0, -999.0
02-09-2023, 00:13:13,      0,    0.0,   13.6,   0.00,   0.00, 1013.3,    0.4, -999.0
02-09-2023, 00:13:23,      7,    0.0,   13.6,   0.00,   0.00, 1013.3,    0.1, -999.0
02-09-2023, 00:13:33,      0,    0.0,   13.6,   0.00,   0.00, 1013.3,    0.3, -999.0
02-09-2023, 00:13:43,      0,    0.0,   13.6,   0.00,   0.00, 1013.3,    0.6, -999.0
02-09-2023, 00:13:53,      0,    0.0,   13.6,   0.00,   0.00, 1013.3,    0.0, -999.0
02-09-2023, 00:14:03,     15,    0.0,   13.6,   0.00,   0.00, 1013.3,    0.3, -999.0
02-09-2023, 00:14:13,      0,    0.0,   13.6,   0.00,   0.00, 1013.3,    0.1, -999.0
02-09-2023, 00:14:23,      0,    0.0,   13.6,   0.00,   0.00, 1013.3,    0.0, -999.0
02-09-2023, 00:14:33,      0,    0.0,   13.5,   0.00,   0.00, 1013.3,    0.3, -999.0
02-09-2023, 00:14:43,      0,    0.0,   13.5,   0.00,   0.00, 1013.3,    0.3, -999.0
02-09-2023, 00:14:53,      0,    0.0,   13.5,   0.00,   0.00, 1013.3,    0.5, -999.0
02-09-2023, 00:15:03,      0,    0.0,   13.6,   0.00,   0.00, 1013.3,    0.1, -999.0
02-09-2023, 00:15:13,      0,    0.0,   13.6,   0.00,   0.00, 1013.3,    0.1, -999.0
02-09-2023, 00:15:23,      0,    0.0,   13.6,   0.00,   0.00, 1013.3,    0.2, -999.0
02-09-2023, 00:15:33,      0,    0.0,   13.6,   0.00,   0.00, 1013.3,    0.1, -999.0
02-09-2023, 00:15:43,      0,    0.0,   13.5,   0.00,   0.00, 1013.3,    0.0, -999.0
02-09-2023, 00:15:53,      0,    0.0,   13.6,   0.00,   0.00, 1013.3,    0.6, -999.0
02-09-2023, 00:16:03,     16,    0.0,   13.6,   0.00,   0.00, 1013.3,    0.1, -999.0
02-09-2023, 00:16:13,      0,    0.0,   13.5,   0.00,   0.00, 1013.3,    0.5, -999.0
02-09-2023, 00:16:23,      0,    0.0,   13.5,   0.00,   0.00, 1013.3,    0.4, -999.0
02-09-2023, 00:16:33,      0,    0.0,   13.5,   0.00,   0.00, 1013.3,    0.3, -999.0
02-09-2023, 00:16:42,      0,    0.0,   13.4,   0.00,   0.00, 1013.3,    0.1, -999.0
02-09-2023, 00:16:53,     14,    0.0,   13.5,   0.00,   0.00, 1013.3,    0.4, -999.0
02-09-2023, 00:17:03,      0,    0.0,   13.4,   0.00,   0.00, 1013.3,    0.1, -999.0
02-09-2023, 00:17:12,      0,    0.0,   13.5,   0.00,   0.00, 1013.3,    0.3, -999.0
02-09-2023, 00:17:22,      0,    0.0,   13.5,   0.00,   0.00, 1013.3,    0.3, -999.0
02-09-2023, 00:17:33,      0,    0.0,   13.6,   0.00,   0.00, 1013.3,    0.2, -999.0
02-09-2023, 00:17:43,      0,    0.0,   13.6,   0.00,   0.00, 1013.3,    0.2, -999.0
02-09-2023, 00:17:52,      0,    0.0,   13.6,   0.00,   0.00, 1013.3,    0.3, -999.0
02-09-2023, 00:18:02,      0,    0.0,   13.6,   0.00,   0.00, 1013.4,    0.2, -999.0
02-09-2023, 00:18:13,      0,    0.0,   13.6,   0.00,   0.00, 1013.3,    0.2, -999.0
02-09-2023, 00:18:22,      0,    0.0,   13.5,   0.00,   0.00, 1013.3,    0.3, -999.0
02-09-2023, 00:18:32,      0,    0.0,   13.6,   0.00,   0.00, 1013.3,    0.3, -999.0
02-09-2023, 00:18:42,      0,    0.0,   13.6,   0.00,   0.00, 1013.3,    0.2, -999.0
02-09-2023, 00:18:52,     11,    0.0,   13.6,   0.00,   0.00, 1013.3,    0.2, -999.0
02-09-2023, 00:19:02,      2,    0.0,   13.6,   0.00,   0.00, 1013.3,    0.3, -999.0
02-09-2023, 00:19:12,      0,    0.0,   13.6,   0.00,   0.00, 1013.3,    0.3, -999.0
02-09-2023, 00:19:22,      0,    0.0,   13.6,   0.00,   0.00, 1013.3,    0.2, -999.0
02-09-2023, 00:19:32,      0,    0.0,   13.6,   0.00,   0.00, 1013.3,    0.2, -999.0
02-09-2023, 00:19:42,      0,    0.0,   13.6,   0.00,   0.00, 1013.3,    0.1, -999.0
02-09-2023, 00:19:52,      0,    0.0,   13.6,   0.00,   0.00, 1013.3,    0.2, -999.0
02-09-2023, 00:20:02,      0,    0.0,   13.6,   0.00,   0.00, 1013.3,    0.4, -999.0
02-09-2023, 00:20:12,      0,    0.0,   13.6,   0.00,   0.00, 1013.3,    0.1, -999.0
02-09-2023, 00:20:22,      0,    0.0,   13.6,   0.00,   0.00, 1013.3,    0.2, -999.0
02-09-2023, 00:20:32,      8,    0.0,   13.5,   0.00,   0.00, 1013.3,    0.4, -999.0
02-09-2023, 00:20:42,      0,    0.0,   13.6,   0.00,   0.00, 1013.3,    0.1, -999.0
02-09-2023, 00:20:52,      0,    0.0,   13.6,   0.00,   0.00, 1013.3,    0.1, -999.0
02-09-2023, 00:21:02,     15,    0.0,   13.6,   0.00,   0.00, 1013.3,    0.3, -999.0
02-09-2023, 00:21:12,      0,    0.0,   13.4,   0.00,   0.00, 1013.3,    0.1, -999.0
02-09-2023, 00:21:22,      0,    0.0,   13.5,   0.00,   0.00, 1013.3,    0.3, -999.0
02-09-2023, 00:21:32,      0,    0.0,   13.6,   0.00,   0.00, 1013.3,    0.3, -999.0
02-09-2023, 00:21:42,      3,    0.0,   13.6,   0.00,   0.00, 1013.3,    0.4, -999.0
02-09-2023, 00:21:52,      0,    0.0,   13.6,   0.00,   0.00, 1013.3,    0.3, -999.0
02-09-2023, 00:22:02,     14,    0.0,   13.6,   0.00,   0.00, 1013.3,    0.2, -999.0
02-09-2023, 00:22:12,     15,    0.0,   13.6,   0.00,   0.00, 1013.3,    0.2, -999.0
02-09-2023, 00:22:22,      6,    0.0,   13.6,   0.00,   0.00, 1013.3,    0.3, -999.0
02-09-2023, 00:22:32,      0,    0.0,   13.5,   0.00,   0.00, 1013.3,    0.2, -999.0
02-09-2023, 00:22:42,      0,    0.0,   13.6,   0.00,   0.00, 1013.3,    0.3, -999.0
02-09-2023, 00:22:52,      0,    0.0,   13.6,   0.00,   0.00, 1013.3,    0.3, -999.0
02-09-2023, 00:23:02,      0,    0.0,   13.6,   0.00,   0.00, 1013.3,    0.3, -999.0
02-09-2023, 00:23:11,      0,    0.0,   13.5,   0.00,   0.00, 1013.3,    0.3, -999.0
02-09-2023, 00:23:21,      0,    0.0,   13.6,   0.00,   0.00, 1013.3,    0.2, -999.0
02-09-2023, 00:23:32,      0,    0.0,   13.5,   0.00,   0.00, 1013.3,    0.2, -999.0
02-09-2023, 00:23:41,      0,    0.0,   13.6,   0.00,   0.00, 1013.3,    0.3, -999.0
02-09-2023, 00:23:51,      0,    0.0,   13.6,   0.00,   0.00, 1013.3,    0.3, -999.0
02-09-2023, 00:24:02,      0,    0.0,   13.6,   0.00,   0.00, 1013.4,    0.1, -999.0
02-09-2023, 00:24:11,      0,    0.0,   13.5,   0.00,   0.00, 1013.3,    0.1, -999.0
02-09-2023, 00:24:21,      0,    0.0,   13.5,   0.00,   0.00, 1013.3,    0.2, -999.0
02-09-2023, 00:24:31,      0,    0.0,   13.5,   0.00,   0.00, 1013.3,    0.1, -999.0
02-09-2023, 00:24:42,      2,    0.0,   13.5,   0.00,   0.00, 1013.3,    0.3, -999.0
02-09-2023, 00:24:51,     10,    0.0,   13.5,   0.00,   0.00, 1013.3,    0.1, -999.0
02-09-2023, 00:25:01,      0,    0.0,   13.5,   0.00,   0.00, 1013.3,    0.1, -999.0
02-09-2023, 00:25:11,      0,    0.0,   13.5,   0.00,   0.00, 1013.3,    0.4, -999.0
02-09-2023, 00:25:21,      0,    0.0,   13.5,   0.00,   0.00, 1013.3,    0.1, -999.0
02-09-2023, 00:25:31,      0,    0.0,   13.5,   0.00,   0.00, 1013.3,    0.3, -999.0
02-09-2023, 00:25:41,      0,    0.0,   13.5,   0.00,   0.00, 1013.3,    0.2, -999.0
02-09-2023, 00:25:51,      0,    0.0,   13.4,   0.00,   0.00, 1013.3,    0.3, -999.0
02-09-2023, 00:26:01,      0,    0.0,   13.4,   0.00,   0.00, 1013.3,    0.2, -999.0
02-09-2023, 00:26:11,      0,    0.0,   13.4,   0.00,   0.00, 1013.3,    0.2, -999.0
02-09-2023, 00:26:21,      0,    0.0,   13.4,   0.00,   0.00, 1013.3,    0.3, -999.0
02-09-2023, 00:26:31,     13,    0.0,   13.4,   0.00,   0.00, 1013.3,    0.2, -999.0
02-09-2023, 00:26:41,      0,    0.0,   13.4,   0.00,   0.00, 1013.3,    0.2, -999.0
02-09-2023, 00:26:51,      0,    0.0,   13.4,   0.00,   0.00, 1013.3,    0.3, -999.0
02-09-2023, 00:27:01,      0,    0.0,   13.4,   0.00,   0.00, 1013.3,    0.1, -999.0
02-09-2023, 00:27:11,     15,    0.0,   13.4,   0.00,   0.00, 1013.3,    0.4, -999.0
02-09-2023, 00:27:21,      0,    0.0,   13.4,   0.00,   0.00, 1013.3,    0.2, -999.0
02-09-2023, 00:27:31,      0,    0.0,   13.3,   0.00,   0.00, 1013.3,    0.1, -999.0
02-09-2023, 00:27:41,      3,    0.0,   13.3,   0.00,   0.00, 1013.3,    0.3, -999.0
02-09-2023, 00:27:51,      0,    0.0,   13.3,   0.00,   0.00, 1013.3,    0.0, -999.0
02-09-2023, 00:28:01,     15,    0.0,   13.3,   0.00,   0.00, 1013.3,    0.1, -999.0
02-09-2023, 00:28:11,      0,    0.0,   13.2,   0.00,   0.00, 1013.3,    0.7, -999.0
02-09-2023, 00:28:21,      0,    0.0,   13.3,   0.00,   0.00, 1013.3,    0.6, -999.0
02-09-2023, 00:28:31,      0,    0.0,   13.3,   0.00,   0.00, 1013.3,    0.7, -999.0
02-09-2023, 00:28:41,      0,    0.0,   13.2,   0.00,   0.00, 1013.3,    0.6, -999.0
02-09-2023, 00:28:51,      0,    0.0,   13.2,   0.00,   0.00, 1013.3,    0.3, -999.0
02-09-2023, 00:29:00,      0,    0.0,   13.2,   0.00,   0.00, 1013.3,    0.0, -999.0
02-09-2023, 00:29:11,      0,    0.0,   13.2,   0.00,   0.00, 1013.3,    0.0, -999.0
02-09-2023, 00:29:21,      0,    0.0,   13.2,   0.00,   0.00, 1013.3,    0.1, -999.0
02-09-2023, 00:29:31,     15,    0.0,   13.2,   0.00,   0.00, 1013.3,    0.3, -999.0
02-09-2023, 00:29:40,      0,    0.0,   13.1,   0.00,   0.00, 1013.3,    0.2, -999.0
02-09-2023, 00:29:51,      0,    0.0,   13.1,   0.00,   0.00, 1013.3,    0.4, -999.0
02-09-2023, 00:30:01,      0,    0.0,   13.1,   0.00,   0.00, 1013.3,    0.3, -999.0
02-09-2023, 00:30:10,      0,    0.0,   13.1,   0.00,   0.00, 1013.3,    0.3, -999.0
02-09-2023, 00:30:20,      0,    0.0,   13.1,   0.00,   0.00, 1013.3,    0.3, -999.0
02-09-2023, 00:30:31,     12,    0.0,   13.1,   0.00,   0.00, 1013.3,    0.3, -999.0
02-09-2023, 00:30:40,      0,    0.0,   13.1,   0.00,   0.00, 1013.3,    0.2, -999.0
02-09-2023, 00:30:50,      1,    0.0,   13.1,   0.00,   0.00, 1013.3,    0.3, -999.0
02-09-2023, 00:31:00,      0,    0.0,   13.1,   0.00,   0.00, 1013.3,    0.0, -999.0
02-09-2023, 00:31:11,      0,    0.0,   13.1,   0.00,   0.00, 1013.3,    0.3, -999.0
02-09-2023, 00:31:20,      0,    0.0,   13.1,   0.00,   0.00, 1013.3,    0.3, -999.0
02-09-2023, 00:31:30,      0,    0.0,   13.1,   0.00,   0.00, 1013.3,    0.2, -999.0
02-09-2023, 00:31:40,      0,    0.0,   13.0,   0.00,   0.00, 1013.3,    0.1, -999.0
02-09-2023, 00:31:50,      0,    0.0,   13.1,   0.00,   0.00, 1013.3,    0.3, -999.0
02-09-2023, 00:32:00,      0,    0.0,   13.0,   0.00,   0.00, 1013.3,    0.1, -999.0
02-09-2023, 00:32:10,      0,    0.0,   13.0,   0.00,   0.00, 1013.3,    0.1, -999.0
02-09-2023, 00:32:20,      0,    0.0,   13.1,   0.00,   0.00, 1013.3,    0.2, -999.0
02-09-2023, 00:32:30,      0,    0.0,   13.1,   0.00,   0.00, 1013.3,    0.2, -999.0
02-09-2023, 00:32:40,      0,    0.0,   13.0,   0.00,   0.00, 1013.3,    0.1, -999.0
02-09-2023, 00:32:50,     13,    0.0,   13.0,   0.00,   0.00, 1013.3,    0.2, -999.0
02-09-2023, 00:33:00,      0,    0.0,   13.1,   0.00,   0.00, 1013.3,    0.4, -999.0
02-09-2023, 00:33:10,      0,    0.0,   13.0,   0.00,   0.00, 1013.3,    0.2, -999.0
02-09-2023, 00:33:20,      0,    0.0,   13.0,   0.00,   0.00, 1013.3,    0.3, -999.0
02-09-2023, 00:33:30,      0,    0.0,   13.0,   0.00,   0.00, 1013.3,    0.2, -999.0
02-09-2023, 00:33:40,     15,    0.0,   13.0,   0.00,   0.00, 1013.3,    0.3, -999.0
02-09-2023, 00:33:50,      0,    0.0,   13.0,   0.00,   0.00, 1013.3,    0.2, -999.0
02-09-2023, 00:34:00,      0,    0.0,   13.0,   0.00,   0.00, 1013.3,    0.3, -999.0
02-09-2023, 00:34:10,      0,    0.0,   13.1,   0.00,   0.00, 1013.3,    0.2, -999.0
02-09-2023, 00:34:20,      0,    0.0,   13.0,   0.00,   0.00, 1013.3,    0.3, -999.0
02-09-2023, 00:34:30,      0,    0.0,   13.0,   0.00,   0.00, 1013.3,    0.2, -999.0
02-09-2023, 00:34:40,      0,    0.0,   13.0,   0.00,   0.00, 1013.3,    0.2, -999.0
02-09-2023, 00:34:50,      0,    0.0,   13.0,   0.00,   0.00, 1013.3,    0.3, -999.0
02-09-2023, 00:35:00,      0,    0.0,   13.0,   0.00,   0.00, 1013.3,    0.2, -999.0
02-09-2023, 00:35:10,      0,    0.0,   13.0,   0.00,   0.00, 1013.3,    0.3, -999.0
02-09-2023, 00:35:20,      0,    0.0,   13.0,   0.00,   0.00, 1013.2,    0.3, -999.0
02-09-2023, 00:35:29,      0,    0.0,   13.0,   0.00,   0.00, 1013.2,    0.1, -999.0
02-09-2023, 00:35:40,      0,    0.0,   13.0,   0.00,   0.00, 1013.3,    0.3, -999.0
02-09-2023, 00:35:50,      0,    0.0,   13.0,   0.00,   0.00, 1013.2,    0.3, -999.0
02-09-2023, 00:35:59,      0,    0.0,   13.1,   0.00,   0.00, 1013.3,    0.2, -999.0
02-09-2023, 00:36:09,     14,    0.0,   13.0,   0.00,   0.00, 1013.2,    0.2, -999.0
02-09-2023, 00:36:20,      0,    0.0,   13.1,   0.00,   0.00, 1013.2,    0.2, -999.0
02-09-2023, 00:36:30,      0,    0.0,   13.0,   0.00,   0.00, 1013.2,    0.4, -999.0
02-09-2023, 00:36:39,      0,    0.0,   13.1,   0.00,   0.00, 1013.2,    0.1, -999.0
02-09-2023, 00:36:49,      0,    0.0,   13.1,   0.00,   0.00, 1013.2,    0.2, -999.0
02-09-2023, 00:37:00,      0,    0.0,   13.1,   0.00,   0.00, 1013.2,    0.3, -999.0
02-09-2023, 00:37:09,     15,    0.0,   13.1,   0.00,   0.00, 1013.2,    0.1, -999.0
02-09-2023, 00:37:19,      0,    0.0,   13.1,   0.00,   0.00, 1013.2,    0.4, -999.0
02-09-2023, 00:37:29,      0,    0.0,   13.0,   0.00,   0.00, 1013.2,    0.2, -999.0
02-09-2023, 00:37:39,      2,    0.0,   13.0,   0.00,   0.00, 1013.2,    0.2, -999.0
02-09-2023, 00:37:49,     13,    0.0,   13.0,   0.00,   0.00, 1013.2,    0.2, -999.0
02-09-2023, 00:37:59,      0,    0.0,   13.0,   0.00,   0.00, 1013.2,    0.2, -999.0
02-09-2023, 00:38:09,     15,    0.0,   13.0,   0.00,   0.00, 1013.2,    0.2, -999.0
02-09-2023, 00:38:19,      0,    0.0,   13.0,   0.00,   0.00, 1013.2,    0.2, -999.0
02-09-2023, 00:38:29,      0,    0.0,   13.0,   0.00,   0.00, 1013.2,    0.2, -999.0
02-09-2023, 00:38:39,      0,    0.0,   13.0,   0.00,   0.00, 1013.2,    0.3, -999.0
02-09-2023, 00:38:49,      0,    0.0,   13.0,   0.00,   0.00, 1013.2,    0.1, -999.0
02-09-2023, 00:38:59,      0,    0.0,   13.0,   0.00,   0.00, 1013.2,    0.2, -999.0
02-09-2023, 00:39:09,      0,    0.0,   13.1,   0.00,   0.00, 1013.2,    0.2, -999.0
02-09-2023, 00:39:19,      0,    0.0,   13.1,   0.00,   0.00, 1013.2,    0.3, -999.0
02-09-2023, 00:39:29,      0,    0.0,   13.0,   0.00,   0.00, 1013.2,    0.3, -999.0
02-09-2023, 00:39:39,      0,    0.0,   13.0,   0.00,   0.00, 1013.2,    0.2, -999.0
02-09-2023, 00:39:49,      0,    0.0,   13.0,   0.00,   0.00, 1013.2,    0.2, -999.0
02-09-2023, 00:39:59,      0,    0.0,   13.0,   0.00,   0.00, 1013.2,    0.2, -999.0
02-09-2023, 00:40:09,      0,    0.0,   12.9,   0.00,   0.00, 1013.2,    0.4, -999.0
02-09-2023, 00:40:19,      8,    0.0,   13.0,   0.00,   0.00, 1013.2,    0.1, -999.0
02-09-2023, 00:40:29,      0,    0.0,   13.0,   0.00,   0.00, 1013.2,    0.5, -999.0
02-09-2023, 00:40:39,      0,    0.0,   13.0,   0.00,   0.00, 1013.2,    0.2, -999.0
02-09-2023, 00:40:49,      0,    0.0,   13.0,   0.00,   0.00, 1013.2,    0.2, -999.0
02-09-2023, 00:40:59,     14,    0.0,   13.0,   0.00,   0.00, 1013.1,    0.1, -999.0
02-09-2023, 00:41:09,      0,    0.0,   13.0,   0.00,   0.00, 1013.1,    0.2, -999.0
02-09-2023, 00:41:19,      0,    0.0,   12.9,   0.00,   0.00, 1013.2,    0.3, -999.0
02-09-2023, 00:41:29,      0,    0.0,   13.0,   0.00,   0.00, 1013.2,    0.4, -999.0
02-09-2023, 00:41:39,      3,    0.0,   13.0,   0.00,   0.00, 1013.2,    0.4, -999.0
02-09-2023, 00:41:49,     15,    0.0,   13.0,   0.00,   0.00, 1013.2,    0.1, -999.0
02-09-2023, 00:41:58,      0,    0.0,   12.9,   0.00,   0.00, 1013.2,    0.2, -999.0
02-09-2023, 00:42:09,      0,    0.0,   12.9,   0.00,   0.00, 1013.2,    0.2, -999.0
02-09-2023, 00:42:19,     14,    0.0,   12.9,   0.00,   0.00, 1013.2,    0.2, -999.0
02-09-2023, 00:42:28,      0,    0.0,   12.9,   0.00,   0.00, 1013.2,    0.2, -999.0
02-09-2023, 00:42:38,      0,    0.0,   13.0,   0.00,   0.00, 1013.2,    0.1, -999.0
02-09-2023, 00:42:49,      0,    0.0,   12.9,   0.00,   0.00, 1013.2,    0.3, -999.0
02-09-2023, 00:42:59,      0,    0.0,   12.9,   0.00,   0.00, 1013.2,    0.1, -999.0
02-09-2023, 00:43:08,      0,    0.0,   12.9,   0.00,   0.00, 1013.2,    0.3, -999.0
02-09-2023, 00:43:18,      2,    0.0,   12.9,   0.00,   0.00, 1013.2,    0.2, -999.0
02-09-2023, 00:43:29,      0,    0.0,   13.0,   0.00,   0.00, 1013.2,    0.1, -999.0
02-09-2023, 00:43:38,      2,    0.0,   13.0,   0.00,   0.00, 1013.3,    0.3, -999.0
02-09-2023, 00:43:48,      0,    0.0,   12.9,   0.00,   0.00, 1013.2,    0.3, -999.0
02-09-2023, 00:43:58,      0,    0.0,   12.9,   0.00,   0.00, 1013.2,    0.3, -999.0
02-09-2023, 00:44:08,      0,    0.0,   12.9,   0.00,   0.00, 1013.2,    0.2, -999.0
02-09-2023, 00:44:18,      0,    0.0,   12.9,   0.00,   0.00, 1013.2,    0.2, -999.0
02-09-2023, 00:44:28,      0,    0.0,   12.9,   0.00,   0.00, 1013.2,    0.4, -999.0
02-09-2023, 00:44:38,      0,    0.0,   12.8,   0.00,   0.00, 1013.2,    0.2, -999.0
02-09-2023, 00:44:48,      0,    0.0,   12.9,   0.00,   0.00, 1013.2,    0.2, -999.0
02-09-2023, 00:44:58,      0,    0.0,   12.9,   0.00,   0.00, 1013.2,    0.3, -999.0
02-09-2023, 00:45:08,      0,    0.0,   12.9,   0.00,   0.00, 1013.2,    0.2, -999.0
02-09-2023, 00:45:18,      0,    0.0,   12.9,   0.00,   0.00, 1013.1,    0.3, -999.0
02-09-2023, 00:45:28,      0,    0.0,   12.9,   0.00,   0.00, 1013.2,    0.3, -999.0
02-09-2023, 00:45:38,      3,    0.0,   12.9,   0.00,   0.00, 1013.2,    0.2, -999.0
02-09-2023, 00:45:48,      0,    0.0,   12.9,   0.00,   0.00, 1013.2,    0.0, -999.0
02-09-2023, 00:45:58,      0,    0.0,   12.9,   0.00,   0.00, 1013.2,    0.3, -999.0
02-09-2023, 00:46:08,     14,    0.0,   12.9,   0.00,   0.00, 1013.2,    0.1, -999.0
02-09-2023, 00:46:18,      0,    0.0,   12.9,   0.00,   0.00, 1013.1,    0.2, -999.0
02-09-2023, 00:46:28,      0,    0.0,   12.9,   0.00,   0.00, 1013.2,    0.1, -999.0
02-09-2023, 00:46:38,      0,    0.0,   12.9,   0.00,   0.00, 1013.1,    0.3, -999.0
02-09-2023, 00:46:48,      6,    0.0,   12.9,   0.00,   0.00, 1013.2,    0.3, -999.0